Simultaneous Nadir Overpasses (SNOs) Predictions

Prediction of SNOs between AQUA and GOES-15 Satellite Orbit:

Table of predicted SNOs for the next 14.0 days since TLE Epoch: 12/19/2020
Index Date Time (AQUA) AQUA Lat,Lon GOES-15 Lat,Lon Distance(km) Time Diff (sec)
1 12/19/2020 10:13:06 0.34,-129.37 0.10,-128.23 130.29 80
2 12/21/2020 10:00:55 -0.28,-126.41 0.09,-128.24 207.17 80
3 12/21/2020 22:22:19 -0.81,-131.61 -0.13,-128.27 379.62 80
4 12/23/2020 22:10:08 -0.19,-128.66 -0.12,-128.28 42.43 80
5 12/25/2020 21:57:58 0.44,-125.70 -0.12,-128.29 294.29 80
6 12/26/2020 10:19:11 0.73,-130.84 0.15,-128.26 293.75 80
7 12/28/2020 10:07:00 0.10,-127.88 0.15,-128.26 42.38 80
8 12/30/2020 09:54:49 -0.54,-124.93 0.15,-128.25 377.61 80
9 12/30/2020 22:16:13 -0.60,-130.12 -0.18,-128.28 209.41 80
10 01/01/2021 22:04:02 0.04,-127.16 -0.17,-128.27 125.06 80
